| time (UTC) | temp F | wind direction | speed MPH | gust MPH | rain 1hr in | rain 24hr in | rain mn in | humidity % | barometer mb |
| 20260509184003 | 69 | 219 | 4.0 | 10.0 | 0.00 | 0.00 | 0.00 | 78 | 1010.4 |
| 20260509183503 | 68 | 174 | 4.0 | 11.0 | 0.00 | 0.00 | 0.00 | 77 | 1010.5 |
| 20260509183002 | 68 | 182 | 4.0 | 8.0 | 0.00 | 0.00 | 0.00 | 78 | 1010.6 |
| 20260509182003 | 67 | 255 | 5.0 | 15.0 | 0.00 | 0.00 | 0.00 | 79 | 1010.6 |
| 20260509181502 | 66 | 178 | 4.0 | 11.0 | 0.00 | 0.00 | 0.00 | 80 | 1010.7 |
| 20260509181002 | 65 | 265 | 4.0 | 10.0 | 0.00 | 0.00 | 0.00 | 81 | 1010.9 |
| 20260509180502 | 65 | 225 | 3.0 | 10.0 | 0.00 | 0.00 | 0.00 | 81 | 1010.9 |
| 20260509180007 | 64 | 213 | 4.0 | 11.0 | 0.00 | 0.00 | 0.00 | 83 | 1011.0 |
| 20260509175507 | 64 | 236 | 5.0 | 11.0 | 0.00 | 0.00 | 0.00 | 84 | 1011.1 |
| 20260509175002 | 64 | 193 | 6.0 | 15.0 | 0.00 | 0.00 | 0.00 | 83 | 1011.0 |
| 20260509174501 | 64 | 180 | 6.0 | 16.0 | 0.00 | 0.00 | 0.00 | 81 | 1011.0 |
| 20260509174002 | 65 | 179 | 5.0 | 16.0 | 0.00 | 0.00 | 0.00 | 80 | 1011.1 |
| 20260509173503 | 66 | 190 | 4.0 | 10.0 | 0.00 | 0.00 | 0.00 | 78 | 1011.0 |
| 20260509173003 | 66 | 223 | 4.0 | 10.0 | 0.00 | 0.00 | 0.00 | 77 | 1010.9 |
| 20260509172501 | 67 | 227 | 5.0 | 16.0 | 0.00 | 0.00 | 0.00 | 74 | 1010.8 |
| 20260509172004 | 68 | 202 | 5.0 | 16.0 | 0.00 | 0.00 | 0.00 | 71 | 1010.9 |
| 20260509171501 | 69 | 199 | 5.0 | 14.0 | 0.00 | 0.00 | 0.00 | 70 | 1010.8 |
| 20260509171004 | 71 | 277 | 6.0 | 14.0 | 0.00 | 0.00 | 0.00 | 70 | 1010.7 |
| 20260509170502 | 70 | 226 | 6.0 | 14.0 | 0.00 | 0.00 | 0.00 | 68 | 1010.5 |
| 20260509170005 | 70 | 140 | 5.0 | 14.0 | 0.00 | 0.00 | 0.00 | 69 | 1010.7 |
| 20260509165501 | 70 | 271 | 4.0 | 8.0 | 0.00 | 0.00 | 0.00 | 69 | 1010.8 |
| 20260509165001 | 70 | 246 | 3.0 | 10.0 | 0.00 | 0.00 | 0.00 | 65 | 1011.0 |
| 20260509164501 | 72 | 189 | 3.0 | 10.0 | 0.00 | 0.00 | 0.00 | 60 | 1010.8 |
| 20260509164002 | 72 | 236 | 4.0 | 10.0 | 0.00 | 0.00 | 0.00 | 59 | 1010.9 |
| 20260509163001 | 72 | 51 | 4.0 | 13.0 | 0.00 | 0.00 | 0.00 | 55 | 1011.0 |
| 20260509162001 | 73 | 259 | 4.0 | 16.0 | 0.00 | 0.00 | 0.00 | 54 | 1010.8 |
| 20260509161503 | 74 | 242 | 4.0 | 10.0 | 0.00 | 0.00 | 0.00 | 56 | 1010.8 |
| 20260509161001 | 73 | 194 | 4.0 | 10.0 | 0.00 | 0.00 | 0.00 | 53 | 1010.9 |
| 20260509160502 | 74 | 221 | 4.0 | 9.0 | 0.00 | 0.00 | 0.00 | 54 | 1010.9 |
| 20260509160005 | 74 | 333 | 4.0 | 11.0 | 0.00 | 0.00 | 0.00 | 57 | 1011.0 |
| 20260509155502 | 74 | 296 | 4.0 | 11.0 | 0.00 | 0.00 | 0.00 | 55 | 1011.3 |
| 20260509155004 | 73 | 184 | 5.0 | 20.0 | 0.00 | 0.00 | 0.00 | 54 | 1011.5 |
| 20260509153501 | 72 | 264 | 4.0 | 12.0 | 0.00 | 0.00 | 0.00 | 56 | 1011.9 |
| 20260509153002 | 72 | 257 | 4.0 | 12.0 | 0.00 | 0.00 | 0.00 | 56 | 1012.1 |
| 20260509152502 | 72 | 258 | 3.0 | 11.0 | 0.00 | 0.00 | 0.00 | 57 | 1012.2 |
| 20260509152002 | 71 | 159 | 4.0 | 10.0 | 0.00 | 0.00 | 0.00 | 57 | 1012.2 |
| 20260509151502 | 72 | 210 | 4.0 | 10.0 | 0.00 | 0.00 | 0.00 | 56 | 1012.2 |
| 20260509150502 | 72 | 228 | 5.0 | 11.0 | 0.00 | 0.00 | 0.00 | 58 | 1012.2 |
| 20260509150004 | 71 | 194 | 5.0 | 10.0 | 0.00 | 0.00 | 0.00 | 56 | 1012.2 |
| 20260509145502 | 72 | 241 | 5.0 | 12.0 | 0.00 | 0.00 | 0.00 | 58 | 1012.3 |
| 20260509145002 | 71 | 226 | 6.0 | 17.0 | 0.00 | 0.00 | 0.00 | 63 | 1012.4 |
| 20260509144500 | 70 | 223 | 5.0 | 17.0 | 0.00 | 0.00 | 0.00 | 59 | 1012.4 |
| 20260509144002 | 72 | 208 | 4.0 | 9.0 | 0.00 | 0.00 | 0.00 | 59 | 1012.5 |
| 20260509143501 | 72 | 338 | 4.0 | 11.0 | 0.00 | 0.00 | 0.00 | 61 | 1012.4 |
| 20260509143001 | 71 | 147 | 4.0 | 11.0 | 0.00 | 0.00 | 0.00 | 61 | 1012.4 |
| 20260509142501 | 71 | 238 | 4.0 | 11.0 | 0.00 | 0.00 | 0.00 | 60 | 1012.4 |
| 20260509141001 | 72 | 271 | 5.0 | 14.0 | 0.00 | 0.00 | 0.00 | 61 | 1012.4 |
| 20260509140006 | 70 | 237 | 5.0 | 14.0 | 0.00 | 0.00 | 0.00 | 63 | 1012.5 |
| 20260509135501 | 69 | 219 | 5.0 | 14.0 | 0.00 | 0.00 | 0.00 | 62 | 1012.6 |
| 20260509134500 | 69 | 220 | 5.0 | 14.0 | 0.00 | 0.00 | 0.00 | 62 | 1012.6 |
| 20260509134003 | 70 | 184 | 5.0 | 11.0 | 0.00 | 0.00 | 0.00 | 62 | 1012.7 |
| 20260509133501 | 69 | 221 | 5.0 | 12.0 | 0.00 | 0.00 | 0.00 | 64 | 1012.6 |
| 20260509132501 | 67 | 211 | 4.0 | 16.0 | 0.00 | 0.00 | 0.00 | 64 | 1012.7 |
| 20260509132002 | 67 | 231 | 4.0 | 13.0 | 0.00 | 0.00 | 0.00 | 65 | 1012.7 |
| 20260509131501 | 66 | 209 | 3.0 | 13.0 | 0.00 | 0.00 | 0.00 | 65 | 1012.8 |
| 20260509131001 | 66 | 272 | 3.0 | 8.0 | 0.00 | 0.00 | 0.00 | 66 | 1012.7 |
| 20260509130501 | 66 | 199 | 2.0 | 8.0 | 0.00 | 0.00 | 0.00 | 65 | 1012.7 |
| 20260509130001 | 66 | 227 | 3.0 | 9.0 | 0.00 | 0.00 | 0.00 | 65 | 1012.8 |
| 20260509125458 | 66 | 211 | 4.0 | 9.0 | 0.00 | 0.00 | 0.00 | 65 | 1012.8 |
| 20260509125001 | 66 | 226 | 4.0 | 10.0 | 0.00 | 0.00 | 0.00 | 65 | 1012.8 |
| 20260509124500 | 66 | 276 | 4.0 | 10.0 | 0.00 | 0.00 | 0.00 | 65 | 1012.8 |
| 20260509124001 | 65 | 226 | 3.0 | 12.0 | 0.00 | 0.00 | 0.00 | 67 | 1012.8 |
| 20260509123500 | 64 | 277 | 3.0 | 8.0 | 0.00 | 0.00 | 0.00 | 67 | 1012.8 |
| 20260509123000 | 64 | 241 | 3.0 | 10.0 | 0.00 | 0.00 | 0.00 | 67 | 1012.8 |
| 20260509122001 | 64 | 295 | 3.0 | 10.0 | 0.00 | 0.00 | 0.00 | 68 | 1012.8 |
| 20260509121459 | 63 | 243 | 3.0 | 10.0 | 0.00 | 0.00 | 0.00 | 69 | 1012.9 |
| 20260509121001 | 63 | 266 | 3.0 | 9.0 | 0.00 | 0.00 | 0.00 | 69 | 1013.0 |
| 20260509120501 | 63 | 244 | 3.0 | 11.0 | 0.00 | 0.00 | 0.00 | 71 | 1012.9 |
| 20260509120005 | 62 | 242 | 3.0 | 11.0 | 0.00 | 0.00 | 0.00 | 73 | 1013.0 |
| 20260509114501 | 60 | 209 | 3.0 | 10.0 | 0.00 | 0.00 | 0.00 | 77 | 1013.1 |
| 20260509114002 | 60 | 194 | 2.0 | 8.0 | 0.00 | 0.00 | 0.00 | 78 | 1013.0 |
| 20260509113501 | 59 | 257 | 2.0 | 11.0 | 0.00 | 0.00 | 0.00 | 79 | 1013.1 |
| 20260509113003 | 58 | 259 | 3.0 | 11.0 | 0.00 | 0.00 | 0.00 | 79 | 1013.1 |
| 20260509112501 | 58 | 213 | 4.0 | 11.0 | 0.00 | 0.00 | 0.00 | 79 | 1013.1 |
| 20260509112001 | 58 | 270 | 3.0 | 10.0 | 0.00 | 0.00 | 0.00 | 79 | 1013.2 |
| 20260509111501 | 58 | 225 | 3.0 | 9.0 | 0.00 | 0.00 | 0.00 | 79 | 1013.2 |
| 20260509111002 | 58 | 206 | 3.0 | 9.0 | 0.00 | 0.00 | 0.00 | 80 | 1013.2 |
| 20260509110004 | 57 | 210 | 3.0 | 8.0 | 0.00 | 0.00 | 0.00 | 80 | 1013.2 |
| 20260509105500 | 57 | 215 | 2.0 | 10.0 | 0.00 | 0.00 | 0.00 | 80 | 1013.1 |
| 20260509105002 | 57 | 259 | 2.0 | 4.0 | 0.00 | 0.00 | 0.00 | 80 | 1013.2 |
| 20260509104502 | 57 | 298 | 3.0 | 8.0 | 0.00 | 0.00 | 0.00 | 80 | 1013.2 |
| 20260509104003 | 56 | 231 | 3.0 | 9.0 | 0.00 | 0.00 | 0.00 | 80 | 1013.2 |
| 20260509103002 | 56 | 269 | 3.0 | 8.0 | 0.00 | 0.00 | 0.00 | 79 | 1013.1 |
| 20260509102501 | 56 | 282 | 3.0 | 6.0 | 0.00 | 0.00 | 0.00 | 79 | 1013.2 |
| 20260509102002 | 56 | 236 | 3.0 | 9.0 | 0.00 | 0.00 | 0.00 | 79 | 1013.2 |
| 20260509101501 | 56 | 261 | 3.0 | 12.0 | 0.00 | 0.00 | 0.00 | 78 | 1013.2 |
| 20260509101003 | 56 | 221 | 4.0 | 12.0 | 0.00 | 0.00 | 0.00 | 78 | 1013.1 |
| 20260509100500 | 57 | 218 | 4.0 | 11.0 | 0.00 | 0.00 | 0.00 | 78 | 1013.1 |
| 20260509100000 | 56 | 229 | 4.0 | 9.0 | 0.00 | 0.00 | 0.00 | 78 | 1013.0 |
| 20260509095459 | 56 | 225 | 4.0 | 8.0 | 0.00 | 0.00 | 0.00 | 78 | 1013.1 |
| 20260509095001 | 56 | 254 | 4.0 | 10.0 | 0.00 | 0.00 | 0.00 | 78 | 1013.0 |
| 20260509094459 | 56 | 207 | 3.0 | 10.0 | 0.00 | 0.00 | 0.00 | 78 | 1013.0 |
| 20260509094001 | 56 | 219 | 3.0 | 8.0 | 0.00 | 0.00 | 0.00 | 77 | 1013.0 |
| 20260509093500 | 56 | 236 | 4.0 | 9.0 | 0.00 | 0.00 | 0.00 | 77 | 1013.0 |
| 20260509093000 | 56 | 214 | 4.0 | 9.0 | 0.00 | 0.00 | 0.00 | 76 | 1012.9 |
| 20260509092459 | 56 | 233 | 4.0 | 7.0 | 0.00 | 0.00 | 0.00 | 76 | 1013.0 |
| 20260509091959 | 56 | 178 | 3.0 | 8.0 | 0.00 | 0.00 | 0.00 | 76 | 1012.8 |
| 20260509091500 | 56 | 232 | 3.0 | 8.0 | 0.00 | 0.00 | 0.00 | 76 | 1012.8 |
| 20260509091001 | 56 | 256 | 3.0 | 12.0 | 0.00 | 0.00 | 0.00 | 75 | 1012.8 |
| 20260509090500 | 56 | 222 | 3.0 | 12.0 | 0.00 | 0.00 | 0.00 | 75 | 1012.8 |
| 20260509090001 | 56 | 238 | 3.0 | 8.0 | 0.00 | 0.00 | 0.00 | 75 | 1012.9 |
| 20260509085459 | 56 | 190 | 3.0 | 8.0 | 0.00 | 0.00 | 0.00 | 75 | 1012.9 |
| 20260509085002 | 57 | 209 | 2.0 | 8.0 | 0.00 | 0.00 | 0.00 | 74 | 1013.0 |
| 20260509084501 | 57 | 202 | 2.0 | 6.0 | 0.00 | 0.00 | 0.00 | 74 | 1012.9 |
| 20260509084001 | 57 | 217 | 3.0 | 7.0 | 0.00 | 0.00 | 0.00 | 74 | 1013.0 |
| 20260509083002 | 57 | 278 | 3.0 | 10.0 | 0.00 | 0.00 | 0.00 | 74 | 1013.0 |
| 20260509082002 | 57 | 188 | 2.0 | 10.0 | 0.00 | 0.00 | 0.00 | 74 | 1013.1 |
| 20260509080500 | 57 | 198 | 4.0 | 11.0 | 0.00 | 0.00 | 0.00 | 73 | 1013.1 |
| 20260509080001 | 57 | 159 | 4.0 | 11.0 | 0.00 | 0.00 | 0.00 | 72 | 1013.1 |
| 20260509075458 | 57 | 254 | 3.0 | 11.0 | 0.00 | 0.00 | 0.00 | 72 | 1013.1 |
| 20260509075001 | 56 | 271 | 3.0 | 9.0 | 0.00 | 0.00 | 0.00 | 73 | 1013.2 |
| 20260509074500 | 57 | 227 | 3.0 | 10.0 | 0.00 | 0.00 | 0.00 | 72 | 1013.3 |
| 20260509074000 | 56 | 250 | 2.0 | 10.0 | 0.00 | 0.00 | 0.00 | 72 | 1013.4 |
| 20260509073459 | 56 | 237 | 3.0 | 9.0 | 0.00 | 0.00 | 0.00 | 71 | 1013.4 |
| 20260509073003 | 56 | 215 | 3.0 | 7.0 | 0.00 | 0.00 | 0.00 | 71 | 1013.4 |
| 20260509072000 | 56 | 244 | 3.0 | 9.0 | 0.00 | 0.00 | 0.00 | 70 | 1013.4 |
| 20260509071459 | 56 | 241 | 3.0 | 12.0 | 0.00 | 0.00 | 0.00 | 70 | 1013.4 |
| 20260509071001 | 56 | 225 | 3.0 | 12.0 | 0.00 | 0.00 | 0.00 | 71 | 1013.3 |
| 20260509070500 | 56 | 227 | 2.0 | 10.0 | 0.00 | 0.00 | 0.00 | 70 | 1013.2 |
| 20260509065959 | 56 | 237 | 2.0 | 7.0 | 0.00 | 0.00 | 0.00 | 71 | 1013.3 |
| 20260509065459 | 55 | 202 | 2.0 | 8.0 | 0.00 | 0.00 | 0.00 | 70 | 1013.3 |
| 20260509065000 | 55 | 321 | 3.0 | 8.0 | 0.00 | 0.00 | 0.00 | 70 | 1013.3 |
| 20260509064459 | 55 | 212 | 3.0 | 6.0 | 0.00 | 0.00 | 0.00 | 70 | 1013.3 |
| 20260509064001 | 55 | 198 | 2.0 | 7.0 | 0.00 | 0.00 | 0.00 | 70 | 1013.4 |
| 20260509063500 | 55 | 207 | 2.0 | 7.0 | 0.00 | 0.00 | 0.00 | 70 | 1013.5 |
| 20260509063002 | 55 | 228 | 3.0 | 6.0 | 0.00 | 0.00 | 0.00 | 69 | 1013.4 |
| 20260509062459 | 55 | 268 | 2.0 | 9.0 | 0.00 | 0.00 | 0.00 | 69 | 1013.5 |
| 20260509062000 | 55 | 219 | 2.0 | 5.0 | 0.00 | 0.00 | 0.00 | 69 | 1013.5 |
| 20260509061459 | 55 | 245 | 2.0 | 8.0 | 0.00 | 0.00 | 0.00 | 68 | 1013.5 |
| 20260509061001 | 55 | 220 | 2.0 | 7.0 | 0.00 | 0.00 | 0.00 | 68 | 1013.5 |
| 20260509060458 | 55 | 219 | 2.0 | 5.0 | 0.00 | 0.00 | 0.00 | 68 | 1013.5 |
| 20260509060000 | 55 | 179 | 2.0 | 8.0 | 0.00 | 0.00 | 0.00 | 68 | 1013.6 |
| 20260509055500 | 55 | 236 | 2.0 | 8.0 | 0.00 | 0.00 | 0.00 | 67 | 1013.5 |
| 20260509055000 | 55 | 257 | 3.0 | 9.0 | 0.00 | 0.00 | 0.00 | 67 | 1013.5 |
| 20260509054500 | 55 | 248 | 3.0 | 10.0 | 0.00 | 0.00 | 0.00 | 67 | 1013.5 |
| 20260509054000 | 55 | 214 | 3.0 | 11.0 | 0.00 | 0.00 | 0.00 | 67 | 1013.6 |
| 20260509053000 | 55 | 245 | 3.0 | 10.0 | 0.00 | 0.00 | 0.00 | 66 | 1013.6 |
| 20260509052500 | 55 | 219 | 3.0 | 9.0 | 0.00 | 0.00 | 0.00 | 66 | 1013.6 |
| 20260509051959 | 55 | 262 | 3.0 | 9.0 | 0.00 | 0.00 | 0.00 | 66 | 1013.6 |
| 20260509051500 | 55 | 263 | 3.0 | 9.0 | 0.00 | 0.00 | 0.00 | 66 | 1013.5 |
| 20260509051000 | 55 | 218 | 2.0 | 9.0 | 0.00 | 0.00 | 0.00 | 66 | 1013.7 |
| 20260509050459 | 55 | 242 | 2.0 | 7.0 | 0.00 | 0.00 | 0.00 | 66 | 1013.7 |
| 20260509045503 | 55 | 247 | 2.0 | 8.0 | 0.00 | 0.00 | 0.00 | 66 | 1013.8 |
| 20260509045005 | 55 | 242 | 2.0 | 10.0 | 0.00 | 0.00 | 0.00 | 65 | 1013.8 |
| 20260509043503 | 54 | 215 | 3.0 | 8.0 | 0.00 | 0.00 | 0.00 | 65 | 1013.8 |
| 20260509043005 | 55 | 200 | 3.0 | 9.0 | 0.00 | 0.00 | 0.00 | 65 | 1013.9 |
| 20260509042503 | 54 | 311 | 3.0 | 8.0 | 0.00 | 0.00 | 0.00 | 65 | 1014.0 |
| 20260509042005 | 54 | 180 | 3.0 | 9.0 | 0.00 | 0.00 | 0.00 | 65 | 1014.1 |
| 20260509041504 | 55 | 209 | 3.0 | 9.0 | 0.00 | 0.00 | 0.00 | 65 | 1014.1 |
| 20260509041005 | 54 | 134 | 2.0 | 6.0 | 0.00 | 0.00 | 0.00 | 64 | 1014.2 |
| 20260509040504 | 54 | 268 | 2.0 | 4.0 | 0.00 | 0.00 | 0.00 | 64 | 1014.1 |
| 20260509040005 | 54 | 268 | 2.0 | 7.0 | 0.00 | 0.00 | 0.00 | 64 | 1014.0 |
| 20260509035503 | 55 | 268 | 2.0 | 7.0 | 0.00 | 0.00 | 0.00 | 64 | 1014.0 |
| 20260509035004 | 55 | 269 | 2.0 | 6.0 | 0.00 | 0.00 | 0.00 | 64 | 1014.0 |
| 20260509034006 | 55 | 196 | 3.0 | 12.0 | 0.00 | 0.00 | 0.00 | 63 | 1014.1 |
| 20260509033503 | 55 | 211 | 3.0 | 12.0 | 0.00 | 0.00 | 0.00 | 63 | 1014.2 |
| 20260509033005 | 55 | 261 | 2.0 | 7.0 | 0.00 | 0.00 | 0.00 | 63 | 1014.2 |
| 20260509032503 | 55 | 236 | 2.0 | 5.0 | 0.00 | 0.00 | 0.00 | 63 | 1014.2 |
| 20260509032005 | 55 | 200 | 2.0 | 9.0 | 0.00 | 0.00 | 0.00 | 64 | 1014.1 |
| 20260509031503 | 55 | 237 | 2.0 | 9.0 | 0.00 | 0.00 | 0.00 | 63 | 1014.0 |
| 20260509031005 | 55 | 255 | 2.0 | 10.0 | 0.00 | 0.00 | 0.00 | 63 | 1014.1 |
| 20260509030004 | 55 | 273 | 3.0 | 7.0 | 0.00 | 0.00 | 0.00 | 63 | 1013.9 |
| 20260509025503 | 55 | 269 | 3.0 | 7.0 | 0.00 | 0.00 | 0.00 | 62 | 1013.8 |
| 20260509024503 | 55 | 276 | 2.0 | 8.0 | 0.00 | 0.00 | 0.00 | 61 | 1013.8 |
| 20260509024004 | 55 | 229 | 3.0 | 5.0 | 0.00 | 0.00 | 0.00 | 62 | 1013.9 |
| 20260509023503 | 56 | 232 | 3.0 | 7.0 | 0.00 | 0.00 | 0.00 | 61 | 1013.8 |
| 20260509023004 | 56 | 238 | 3.0 | 10.0 | 0.00 | 0.00 | 0.00 | 62 | 1013.9 |
| 20260509022503 | 56 | 219 | 3.0 | 10.0 | 0.00 | 0.00 | 0.00 | 62 | 1013.9 |
| 20260509022005 | 56 | 288 | 3.0 | 8.0 | 0.00 | 0.00 | 0.00 | 62 | 1014.0 |
| 20260509021004 | 56 | 284 | 2.0 | 8.0 | 0.00 | 0.00 | 0.00 | 63 | 1013.9 |
| 20260509020503 | 56 | 246 | 2.0 | 6.0 | 0.00 | 0.00 | 0.00 | 62 | 1013.8 |
| 20260509015503 | 57 | 215 | 4.0 | 10.0 | 0.00 | 0.00 | 0.00 | 63 | 1013.8 |
| 20260509015011 | 57 | 180 | 4.0 | 10.0 | 0.00 | 0.00 | 0.00 | 62 | 1013.8 |
| 20260509014503 | 57 | 226 | 3.0 | 9.0 | 0.00 | 0.00 | 0.00 | 63 | 1013.8 |
| 20260509014003 | 57 | 243 | 2.0 | 9.0 | 0.00 | 0.00 | 0.00 | 64 | 1013.8 |
| 20260509013503 | 57 | 196 | 3.0 | 6.0 | 0.00 | 0.00 | 0.00 | 63 | 1013.9 |
| 20260509013005 | 57 | 246 | 3.0 | 10.0 | 0.00 | 0.00 | 0.00 | 63 | 1013.8 |
| 20260509012503 | 58 | 240 | 4.0 | 10.0 | 0.00 | 0.00 | 0.00 | 63 | 1013.7 |
| 20260509011504 | 58 | 196 | 3.0 | 7.0 | 0.00 | 0.00 | 0.00 | 62 | 1013.6 |
| 20260509011005 | 59 | 205 | 3.0 | 7.0 | 0.00 | 0.00 | 0.00 | 60 | 1013.5 |
| 20260509010007 | 59 | 234 | 3.0 | 9.0 | 0.00 | 0.00 | 0.00 | 60 | 1013.2 |
| 20260509005504 | 59 | 246 | 3.0 | 9.0 | 0.00 | 0.00 | 0.00 | 59 | 1013.2 |
| 20260509005004 | 59 | 259 | 3.0 | 8.0 | 0.00 | 0.00 | 0.00 | 59 | 1013.1 |
| 20260509004503 | 60 | 233 | 3.0 | 10.0 | 0.00 | 0.00 | 0.00 | 58 | 1013.1 |
| 20260509004004 | 60 | 232 | 3.0 | 10.0 | 0.00 | 0.00 | 0.00 | 57 | 1013.0 |
| 20260509003504 | 60 | 190 | 3.0 | 9.0 | 0.00 | 0.00 | 0.00 | 55 | 1013.0 |
| 20260509003004 | 61 | 232 | 3.0 | 9.0 | 0.00 | 0.00 | 0.00 | 52 | 1012.9 |
| 20260509002504 | 61 | 215 | 2.0 | 6.0 | 0.00 | 0.00 | 0.00 | 50 | 1012.9 |
| 20260509002004 | 61 | 213 | 2.0 | 11.0 | 0.00 | 0.00 | 0.00 | 48 | 1013.0 |
| 20260509001504 | 62 | 220 | 2.0 | 11.0 | 0.00 | 0.00 | 0.00 | 48 | 1013.0 |
| 20260509001004 | 62 | 252 | 2.0 | 8.0 | 0.00 | 0.00 | 0.00 | 47 | 1012.9 |
| 20260509000504 | 62 | 221 | 2.0 | 7.0 | 0.00 | 0.00 | 0.00 | 47 | 1012.8 |
| 20260508235504 | 62 | 222 | 2.0 | 8.0 | 0.00 | 0.00 | 0.00 | 48 | 1012.8 |
| 20260508235004 | 62 | 223 | 2.0 | 8.0 | 0.00 | 0.00 | 0.00 | 47 | 1012.7 |
| 20260508234504 | 63 | 271 | 3.0 | 11.0 | 0.00 | 0.00 | 0.00 | 45 | 1012.6 |
| 20260508234005 | 63 | 236 | 3.0 | 11.0 | 0.00 | 0.00 | 0.00 | 45 | 1012.6 |
| 20260508233504 | 63 | 229 | 2.0 | 8.0 | 0.00 | 0.00 | 0.00 | 47 | 1012.6 |
| 20260508233005 | 64 | 295 | 3.0 | 8.0 | 0.00 | 0.00 | 0.00 | 45 | 1012.5 |
| 20260508232005 | 64 | 182 | 2.0 | 6.0 | 0.00 | 0.00 | 0.00 | 45 | 1012.4 |
| 20260508231504 | 65 | 232 | 3.0 | 7.0 | 0.00 | 0.00 | 0.00 | 45 | 1012.3 |
| 20260508231004 | 65 | 67 | 3.0 | 9.0 | 0.00 | 0.00 | 0.00 | 44 | 1012.4 |
| 20260508230503 | 65 | 233 | 3.0 | 11.0 | 0.00 | 0.00 | 0.00 | 45 | 1012.3 |
| 20260508230004 | 65 | 248 | 4.0 | 11.0 | 0.00 | 0.01 | 0.00 | 44 | 1012.3 |
| 20260508225503 | 65 | 288 | 3.0 | 10.0 | 0.00 | 0.01 | 0.00 | 44 | 1012.5 |
| 20260508225003 | 65 | 265 | 4.0 | 12.0 | 0.00 | 0.01 | 0.00 | 43 | 1012.4 |
| 20260508224504 | 66 | 278 | 5.0 | 11.0 | 0.00 | 0.01 | 0.00 | 45 | 1012.3 |
| 20260508224003 | 66 | 234 | 4.0 | 11.0 | 0.00 | 0.01 | 0.00 | 44 | 1012.3 |
| 20260508223502 | 66 | 247 | 4.0 | 11.0 | 0.00 | 0.01 | 0.00 | 44 | 1012.2 |
| 20260508223004 | 66 | 259 | 3.0 | 10.0 | 0.00 | 0.01 | 0.00 | 43 | 1012.2 |
| 20260508222501 | 66 | 270 | 3.0 | 12.0 | 0.00 | 0.01 | 0.00 | 45 | 1012.2 |
| 20260508222004 | 66 | 240 | 4.0 | 12.0 | 0.00 | 0.01 | 0.00 | 42 | 1012.3 |
| 20260508221503 | 67 | 113 | 4.0 | 15.0 | 0.00 | 0.01 | 0.00 | 43 | 1012.3 |
| 20260508221004 | 67 | 283 | 3.0 | 15.0 | 0.00 | 0.01 | 0.00 | 45 | 1012.2 |
| 20260508220502 | 67 | 309 | 3.0 | 9.0 | 0.00 | 0.01 | 0.00 | 42 | 1012.2 |
| 20260508220007 | 67 | 229 | 3.0 | 8.0 | 0.00 | 0.02 | 0.00 | 43 | 1012.1 |
| 20260508215502 | 67 | 223 | 3.0 | 8.0 | 0.00 | 0.02 | 0.00 | 41 | 1012.1 |
| 20260508214502 | 68 | 197 | 4.0 | 12.0 | 0.00 | 0.02 | 0.00 | 44 | 1012.0 |
| 20260508214002 | 68 | 201 | 4.0 | 12.0 | 0.00 | 0.02 | 0.00 | 42 | 1012.1 |
| 20260508213503 | 68 | 242 | 4.0 | 11.0 | 0.00 | 0.02 | 0.00 | 41 | 1012.2 |
| 20260508213003 | 68 | 204 | 4.0 | 11.0 | 0.00 | 0.02 | 0.00 | 40 | 1012.2 |
| 20260508212503 | 68 | 277 | 3.0 | 11.0 | 0.00 | 0.02 | 0.00 | 42 | 1012.2 |
| 20260508212004 | 69 | 242 | 3.0 | 11.0 | 0.00 | 0.02 | 0.00 | 41 | 1012.3 |
| 20260508211503 | 69 | 355 | 3.0 | 9.0 | 0.00 | 0.02 | 0.00 | 39 | 1012.3 |
| 20260508211003 | 69 | 329 | 3.0 | 10.0 | 0.00 | 0.02 | 0.00 | 39 | 1012.3 |
| 20260508210502 | 69 | 278 | 3.0 | 10.0 | 0.00 | 0.02 | 0.00 | 41 | 1012.2 |
| 20260508205003 | 69 | 235 | 4.0 | 14.0 | 0.00 | 0.04 | 0.00 | 40 | 1012.2 |
| 20260508204502 | 69 | 301 | 4.0 | 14.0 | 0.00 | 0.04 | 0.00 | 40 | 1012.4 |
| 20260508204004 | 69 | 22 | 4.0 | 13.0 | 0.00 | 0.04 | 0.00 | 41 | 1012.4 |
| 20260508203503 | 69 | 261 | 4.0 | 13.0 | 0.00 | 0.04 | 0.00 | 40 | 1012.4 |
| 20260508203005 | 69 | 244 | 4.0 | 10.0 | 0.00 | 0.04 | 0.00 | 44 | 1012.5 |
| 20260508202504 | 69 | 306 | 4.0 | 10.0 | 0.00 | 0.04 | 0.00 | 44 | 1012.6 |
| 20260508202003 | 69 | 258 | 5.0 | 10.0 | 0.00 | 0.04 | 0.00 | 39 | 1012.6 |
| 20260508201503 | 70 | 262 | 4.0 | 13.0 | 0.00 | 0.04 | 0.00 | 42 | 1012.5 |
| 20260508200503 | 69 | 263 | 4.0 | 10.0 | 0.00 | 0.04 | 0.00 | 41 | 1012.5 |
| 20260508200005 | 70 | 240 | 4.0 | 10.0 | 0.00 | 0.05 | 0.00 | 39 | 1012.5 |
| 20260508195001 | 70 | 254 | 4.0 | 17.0 | 0.00 | 0.05 | 0.00 | 38 | 1012.6 |
| 20260508194502 | 71 | 344 | 3.0 | 11.0 | 0.00 | 0.05 | 0.00 | 39 | 1012.6 |
| 20260508194004 | 70 | 275 | 3.0 | 9.0 | 0.00 | 0.05 | 0.00 | 37 | 1012.6 |
| 20260508193500 | 70 | 312 | 4.0 | 15.0 | 0.00 | 0.05 | 0.00 | 41 | 1012.7 |
| 20260508193002 | 71 | 155 | 4.0 | 15.0 | 0.00 | 0.05 | 0.00 | 36 | 1012.8 |
| 20260508192501 | 71 | 259 | 4.0 | 11.0 | 0.00 | 0.05 | 0.00 | 37 | 1012.8 |
| 20260508191501 | 70 | 254 | 4.0 | 12.0 | 0.00 | 0.05 | 0.00 | 37 | 1013.0 |
| 20260508191002 | 71 | 282 | 3.0 | 12.0 | 0.00 | 0.05 | 0.00 | 39 | 1013.1 |
| 20260508190502 | 71 | 323 | 3.0 | 15.0 | 0.00 | 0.05 | 0.00 | 39 | 1013.1 |
| 20260508190005 | 71 | 277 | 3.0 | 8.0 | 0.00 | 0.05 | 0.00 | 37 | 1013.0 |
| 20260508185503 | 71 | 103 | 4.0 | 10.0 | 0.00 | 0.06 | 0.00 | 37 | 1013.1 |
| 20260508185002 | 70 | 263 | 4.0 | 10.0 | 0.00 | 0.06 | 0.00 | 38 | 1013.2 |